Overview Statistics Trail Chart Weather Telemetry Raw packets
 

This is the latest recevied weather packets stored in our database for station/object OE2WAO-15. If no packets are shown the sender has not sent any weather packets the latest 10 day(s).

<< 36 37 38 39 40 41 42 >>
Time Temp. Humidity Pressure Rain* Wind** Luminosity Snow
1787929159 25° C 99% 1016 hPa - - - -
1787928548 25.56° C 99% 1015.7 hPa - - - -
1787927940 25.56° C 99% 1015.6 hPa - - - -
1787927332 26.11° C 99% 1015.1 hPa - - - -
1787926725 26.67° C 99% 1014.6 hPa - - - -
1787926117 27.22° C 99% 1014.4 hPa - - - -
1787925510 27.22° C 99% 1014.1 hPa - - - -
1787924902 27.78° C 99% 1014.2 hPa - - - -
1787924295 27.78° C 99% 1014 hPa - - - -
1787923687 28.33° C 99% 1013.8 hPa - - - -
1787923079 29.44° C 99% 1013.2 hPa - - - -
1787922471 30° C 99% 1012.7 hPa - - - -
1787921864 30.56° C 99% 1012.6 hPa - - - -
1787921255 32.22° C 99% 1011.7 hPa - - - -
1787920648 33.33° C 99% 1011.4 hPa - - - -
1787920040 33.33° C 99% 1011 hPa - - - -
1787919430 33.33° C 99% 1011.1 hPa - - - -
1787918822 32.78° C 99% 1011.2 hPa - - - -
1787918215 32.78° C 99% 1011.1 hPa - - - -
1787917607 32.78° C 99% 1011 hPa - - - -
1787917000 32.22° C 99% 1011 hPa - - - -
1787916392 31.67° C 99% 1011 hPa - - - -
1787915784 31.11° C 99% 1011.1 hPa - - - -
1787915175 31.67° C 99% 1010.9 hPa - - - -
1787914567 31.67° C 99% 1010.8 hPa - - - -

* Rain since midnight (hover to see other rain measurements)
** Current wind speed in m/s (hover to see current wind gust speed)